Flag for Germany Weather past 2 weeks in Cuxhaven, Lower Saxony, Germany

Now
50 °F

Passing clouds.


Feels Like: 45 °F
Forecast: 45 / 54 °F
Wind: 15 mph from Southwest

Location: Nordholz

Current Time: May 7, 2015 at 12:40:31 AM

Latest Report: May 6, 2015 at 11:20 PM


Visibility: N/A

Pressure: 29.77 "Hg

Humidity: 76%

Dew point: 43 °F

Location of CuxhavenLocation

Historic Weather in Cuxhaven — Graph

°F

Cuxhaven temperature yesterday

Maximum temperature yesterday: 63 °F (at 12:20 PM)
Minimum temperature yesterday: 48 °F (at 1:20 AM)
Average temperature yesterday: 54 °F

Past Weeks' High & Low Weather Summary

 TemperatureHumidityPressure
High73 °F (May 5, 1:20 PM)100% (Apr 26, 1:20 AM)30.39 "Hg (Apr 26, 1:20 AM)
Low34 °F (Apr 28, 4:20 AM)31% (Apr 29, 3:20 PM)29.39 "Hg (May 5, 9:20 AM)
Average49 °F76%29.84 "Hg
* Reported Apr 21 11:20 PM — May 6 11:20 PM, Cuxhaven, Weather by CustomWeather, © 2015

Note: Actual official high and low records may vary slightly from our data, if they occured in-between our weather recording intervals... More about our weather records

Advertising

Cuxhaven weather history for previous 24 hours

 ConditionsComfort  
Time TempWeatherWind HumidityBarometerVisibility
11:20 PM
Wed, May 6
50 °FPassing clouds.15 mph76%29.77 "HgN/A
10:20 PM52 °FPartly cloudy.12 mph77%29.77 "HgN/A
9:20 PM52 °FPartly sunny.9 mph72%29.77 "HgN/A
9:00 PM52 °FScattered clouds.13 mph77%29.77 "HgN/A
8:20 PM54 °FScattered clouds.15 mph72%29.77 "HgN/A
7:20 PM52 °FPassing clouds.13 mph77%29.77 "HgN/A
6:20 PM50 °FSprinkles. Broken clouds.18 mph88%29.80 "HgN/A
5:20 PM55 °FThunderstorms. Broken clouds.6 mph82%29.77 "HgN/A
4:48 PM50 °FSprinkles. Scattered clouds.12 mph88%29.77 "Hg4 mi
4:20 PM61 °FSprinkles. Broken clouds.16 mph45%29.74 "HgN/A
3:20 PM63 °FScattered clouds.22 mph45%29.74 "HgN/A
2:20 PM61 °FScattered clouds.15 mph48%29.77 "HgN/A
1:20 PM63 °FScattered clouds.22 mph49%29.77 "HgN/A
12:20 PM63 °FScattered clouds.21 mph52%29.77 "HgN/A
11:20 AM59 °FScattered clouds.16 mph59%29.77 "HgN/A
10:20 AM57 °FPassing clouds.15 mph67%29.77 "HgN/A
9:20 AM55 °FPassing clouds.13 mph67%29.77 "HgN/A
8:20 AM54 °FPassing clouds.12 mph67%29.77 "HgN/A
7:20 AM52 °FScattered clouds.8 mph72%29.77 "HgN/A
6:20 AM50 °FPassing clouds.10 mph71%29.77 "HgN/A
5:20 AM50 °FPassing clouds.10 mph71%29.77 "HgN/A
4:20 AM48 °FPassing clouds.8 mph76%29.77 "HgN/A
3:20 AM50 °FPassing clouds.9 mph71%29.77 "HgN/A
2:20 AM50 °FPassing clouds.8 mph71%29.77 "HgN/A
1:20 AM48 °FPassing clouds.8 mph76%29.77 "HgN/A
12:20 AM50 °FPassing clouds.9 mph76%29.74 "HgN/A
Weather by CustomWeather, © 2015

See weather overviewHow to use our weather pages